DNIL

Ilorin International Airport

Airport
ICAO code
DNIL
IATA Code
ILR
Summary
ICAO Region
AFI
ICAO Territory
Location

Obansunwa, Kwara State

Serving
Ilorin
Elevation
1126 ft
Coordinates
8° 26' 25" N , 4° 29' 40" E
KCC
Metar
DNIL 190700Z 18005KT 9999 SCT011 27/25 Q1012

Ilorin International Airport is an airport serving Ilorin, a city in Kwara State of Nigeria.

Climatology

Tropical savanna climate (Köppen climate classification Aw)

Runways

Designator Length Width Surface Rops
5/23 3100 60 ASP No/No

Airport map

Aerial View

SKYbrary Partners:

Safety knowledge contributed by: